STARLINK-31909, 59663

Orbit data source: Space-Track

STARLINK-31909, 59663 is a payload satellite owned by SpaceX/Seattle (US) in LEO that was launched on Mon, 06 May 2024 UTC via an FALCON 9 launch vehicle from the Air Force Eastern Test Range (AFETR). Payload-class satellites include a variety of spacecraft equipped with specific instruments for various scientific and technological missions. These include communications satellites like Starlink; space stations such as the ISS; scientific satellites like the Hubble; Earth observation satellites from companies like Planet Labs, Umbra, and HawkEye 360; GPS; miniature CubeSats for education and research; and military/defense satellites.

Loading next visibility...
Identifier
59663, 2024-084K
Orbit
LEO
Country
Flag of USUS
Related business
Manufacturer
SpaceX/Seattle
Mission
Operational Commercial Communications
Bus & Motor
STARLINK V2M, Unknown motor
Mass
730 kg wet, ~700 kg dry
Launch date (UTC)
2024-05-06 (2 years ago)
Launch vehicle
FALCON 9
Launch site
Air Force Eastern Test Range (AFETR)
Object type
Payload
Rocket body
Debris
Shape & HBR
Box + 2 Pan, 17.7 m
Radar Cross Section
33.884 m², Large (>1 m²)

Expand to show TLE details & history
Last TLE update: 16 hours ago

TLE from 16 hours ago
0 STARLINK-31909
1 59663U 24084K   25348.20199525  .00004558  00000-0  17514-3 0  9995
2 59663  43.0011 164.2208 0001469 281.4100  78.6586 15.27560810 91307
Epoch: 2025-12-14T04:50Z
TLE epoch observation values (Epoch: 2025-12-14T04:50:52.389Z)
Latitude
-0.00006°
Longitude
8.38414°
Altitude
482.684 km
Speed
7.626 km/s
True Right ascension
10h 56m 52s
True Declination
0° 00' 00"
Sunlit
Object was in daylight at epoch
Visualization orbit readout
Latitude
Unknown
Longitude
Unknown
Altitude
Unknown
Speed
Unknown
Apparent Right ascension
Unknown
Apparent Declination
Unknown
Sunlit
N/A
Visualization observer readout
Local Sidereal Time
19:39:12
Azimuth
Unknown
Elevation
Unknown
Doppler factor
Unknown
Orbital elements
Apogee altitude
486.06 km
Perigee altitude
484.043 km
Semi-major axis
6,863.189 km
Eccentricity
0.00015
Inclination
43.0011°
RAAN
164.2208°
Arg. of periapsis
281.41°
True anomaly
78.67511°
Mean anomaly
78.6586°
Eccentric anomaly
78.66685°
Mean motion
3.81728 °/min
Orbital period
94.31 mins
BSTAR
0.00017514
Loading maneuver chart data...
Computing Atmospheric mass density...
Loading historical data...
Loading historical data...
Loading historical data...
Loading historical data...
Loading historical data...
Loading historical data...
Loading historical data...

Documentation

Showing up to 5 results
|